Temperature
14 14 15 16 16 16 16 16 16 17 16 16 15 16 16 17 18 18 18 17 17 16 16 15 15 14 14 13 13 12 12 11 11 11 10 10 10 10 10 10 9 9 9
13 13 14 14 15 16 16 16 16 16 16 16 16 16 16 16 17 17 17 17 17 17 16 16 15 15 14 14 13 12 12 12 11 10 10 9 9 10 10 10 10 9 9
12 12 12 13 14 15 15 16 16 16 16 16 16 15 15 15 15 16 17 17 17 17 16 16 15 15 15 14 14 13 12 12 11 11 10 10 10 10 11 11 10 9 9
11 10 11 12 13 13 14 14 15 15 15 16 15 15 14 14 15 15 16 16 16 16 16 15 15 14 15 14 14 13 13 12 12 11 11 11 11 11 10 10 10 10 9
10 10 10 11 12 13 13 13 14 14 15 15 15 15 14 13 13 13 14 14 15 15 15 14 14 14 14 14 14 14 13 12 12 12 11 11 10 11 11 10 10 10 9
10 10 10 11 11 12 13 13 13 13 14 14 14 14 14 13 13 13 13 13 13 14 14 14 13 13 13 14 14 14 13 13 12 12 12 11 11 11 10 10 10 10 10
10 9 10 10 11 11 12 12 13 13 13 13 13 13 13 13 13 13 13 12 12 12 13 13 13 13 13 13 12 12 13 12 12 11 12 11 11 11 11 10 10 9 9
9 9 9 9 9 10 10 11 11 12 12 12 12 13 13 13 13 13 12 12 12 12 12 12 12 12 12 11 11 11 11 11 11 11 10 10 10 10 10 10 9 9 7
9 8 8 8 8 9 9 9 10 10 10 11 11 11 12 12 12 12 12 12 12 12 12 12 12 11 11 10 10 10 10 10 10 10 10 10 10 9 8 8 8 8 7
9 8 7 7 7 8 8 8 8 8 9 9 9 10 10 11 11 11 12 12 12 12 12 11 11 11 10 9 9 9 9 9 9 10 9 9 8 8 7 7 7 6 6
8 7 6 6 7 7 7 7 7 7 8 8 8 9 9 10 10 10 11 11 11 11 11 11 10 10 9 9 9 9 9 9 9 9 9 8 7 6 6 5 5 5 4
6 6 5 5 5 6 6 6 6 7 7 7 7 8 8 8 9 9 10 10 10 10 10 10 9 9 8 8 8 9 9 8 8 8 7 6 5 4 4 4 4 3 3
6 5 4 4 4 5 5 5 6 6 6 6 7 7 7 8 8 8 8 9 9 9 9 9 8 8 8 8 8 8 8 7 7 6 5 4 3 3 3 3 2 2 2
5 4 3 3 3 4 4 5 5 5 6 6 6 6 7 7 7 7 7 8 8 8 7 7 7 7 7 7 7 6 6 5 4 3 2 2 2 2 2 2 1 1 1
4 3 2 2 2 3 3 4 4 5 5 5 5 6 6 6 6 6 6 6 6 6 6 6 6 5 5 5 5 4 4 3 2 1 1 1 1 1 1 1 0 -0 -1
3 2 1 1 1 2 3 3 4 4 4 4 4 4 4 4 4 4 4 4 4 4 4 4 3 3 3 2 2 2 1 1 1 1 1 1 1 0 -0 -0 -1 -1 -2
2 1 1 1 1 1 2 2 2 3 3 3 3 3 2 2 2 2 2 3 2 2 2 1 1 1 0 0 -0 -0 0 0 0 0 0 -0 -1 -1 -1 -2 -2 -2 -3
2 1 1 1 1 1 1 1 2 2 2 2 1 1 1 1 1 1 1 1 1 0 0 -0 -0 -1 -1 -1 -0 -0 -0 -0 -0 -1 -1 -2 -2 -2 -2 -2 -3 -3 -4
3 2 1 1 1 1 1 1 1 1 1 1 1 0 0 0 0 -0 -0 -0 -0 -1 -1 -1 -1 -1 -1 -1 -1 -1 -1 -1 -1 -2 -2 -2 -3 -3 -3 -4 -4 -5 -6
3 2 2 1 1 1 1 1 1 1 0 0 0 0 0 0 -0 -1 -1 -1 -1 -1 -1 -1 -1 -1 -1 -2 -2 -2 -2 -2 -2 -3 -3 -3 -4 -4 -5 -6 -6 -6 -6
4 3 3 2 2 1 1 1 1 1 0 0 0 0 -0 -0 -0 -1 -1 -1 -1 -1 -1 -1 -2 -2 -2 -2 -3 -3 -3 -3 -3 -4 -4 -4 -5 -5 -6 -7 -7 -7 -7
4 4 3 3 2 2 1 1 1 1 0 0 0 0 -0 -0 -0 -0 -1 -1 -1 -1 -1 -2 -2 -2 -3 -3 -3 -3 -4 -4 -4 -5 -5 -6 -6 -7 -7 -7 -7 -7 -7
4 4 4 3 3 2 2 2 1 1 1 0 0 0 -0 -0 -1 -1 -1 -1 -1 -2 -2 -2 -3 -3 -3 -4 -4 -5 -5 -5 -6 -6 -7 -7 -7 -7 -7 -7 -7 -7 -8
4 4 4 3 3 2 2 2 1 1 0 0 0 -0 -0 -0 -1 -1 -1 -1 -2 -2 -2 -3 -3 -4 -4 -5 -5 -6 -6 -7 -7 -7 -7 -7 -7 -8 -8 -8 -8 -8 -8
4 4 4 3 3 3 2 2 1 1 1 0 0 -0 -0 -1 -1 -1 -2 -2 -2 -3 -3 -4 -4 -5 -6 -6 -6 -7 -8 -8 -8 -8 -8 -8 -8 -8 -8 -8 -8 -8 -8
4 4 4 3 3 3 2 2 1 1 0 0 0 -0 -1 -1 -1 -2 -2 -2 -3 -3 -4 -4 -5 -6 -6 -7 -7 -8 -8 -8 -8 -8 -8 -8 -9 -8 -8 -8 -8 -8 -8
Wind_Speed
7 6 6 6 6 7 9 11 12 13 13 12 12 13 14 14 13 13 17 18 18 19 18 13 14 14 13 14 15 12 12 8 8 6 5 6 7 9 8 9 10 11 12
2 3 3 3 4 5 7 9 10 11 13 12 12 13 14 13 14 12 14 18 19 19 17 18 15 15 14 16 17 14 10 8 10 8 5 6 7 9 10 10 10 11 12
4 5 5 5 4 4 5 6 8 9 10 12 11 11 12 12 12 13 14 17 19 20 18 18 17 16 16 15 18 18 16 11 11 11 8 6 8 6 8 12 11 11 10
6 6 7 7 7 6 6 6 6 7 8 9 11 15 14 15 17 15 14 16 17 18 19 18 17 16 15 17 18 18 16 15 12 10 9 7 3 5 6 7 10 12 11
6 7 7 7 7 7 6 6 6 5 5 6 9 12 15 15 14 15 16 16 15 16 17 17 16 16 16 18 18 18 19 16 15 11 8 8 5 6 5 5 7 8 9
6 7 7 7 7 8 7 7 7 7 6 6 7 10 13 15 16 16 15 15 13 13 17 16 16 16 15 18 18 18 20 18 17 14 11 9 7 9 8 7 4 6 6
6 8 9 9 9 10 10 9 9 9 8 8 8 8 11 13 16 16 15 15 13 12 15 15 16 15 15 15 15 15 17 18 17 15 12 10 9 5 7 6 4 4 3
6 7 8 9 9 10 10 10 11 11 10 9 9 9 9 9 10 13 13 14 12 12 13 15 15 15 14 13 12 11 13 13 14 13 11 7 5 4 4 5 6 5 3
6 7 8 8 9 10 10 10 10 11 11 11 11 10 9 9 10 11 11 11 12 10 11 12 13 13 12 12 11 10 11 10 10 9 8 6 5 4 3 4 3 6 5
7 8 8 9 9 9 9 9 9 10 11 11 10 9 10 10 9 9 10 10 10 9 9 10 11 11 11 11 10 8 9 10 8 7 10 8 7 6 5 6 5 4 4
8 8 8 9 9 9 9 9 10 10 10 10 10 9 9 9 8 8 8 8 7 7 7 8 9 10 10 11 11 10 11 11 10 10 11 11 10 8 7 6 6 6 4
7 7 8 9 9 10 10 10 10 10 10 10 10 9 9 8 7 6 6 5 4 4 4 5 6 7 9 10 11 11 12 12 13 12 13 12 10 10 8 7 6 5 4
7 7 7 8 9 9 10 10 10 11 10 10 9 9 9 8 7 6 5 4 2 1 1 3 4 6 8 9 9 10 11 11 12 12 13 12 12 10 7 7 6 5 4
6 7 7 8 8 9 9 10 10 10 10 10 10 10 9 9 7 6 6 6 6 6 5 5 5 6 7 9 10 11 12 12 12 11 11 10 10 9 8 6 6 4 4
6 6 7 8 8 9 9 9 10 10 10 10 10 10 9 9 9 9 9 10 10 9 8 9 9 9 8 9 11 12 13 13 13 11 10 9 9 9 7 5 5 5 4
4 5 6 7 8 8 9 9 9 10 9 10 10 9 10 10 10 10 10 11 11 11 11 11 10 10 9 15 16 14 12 12 12 11 9 8 7 7 7 6 6 6 5
3 4 5 6 6 7 7 8 8 8 9 9 9 10 10 10 10 11 11 12 12 12 12 11 11 12 14 18 18 17 12 11 10 9 8 6 5 5 3 2 3 5 6
1 2 3 4 5 6 6 6 7 8 9 9 9 9 9 10 10 11 11 11 10 10 10 11 11 12 14 19 19 18 12 10 9 7 6 6 4 3 2 2 3 4 5
1 2 2 3 4 5 5 6 7 8 8 8 8 8 8 9 10 10 10 9 10 10 10 10 11 12 13 16 16 13 8 8 7 6 4 3 2 1 3 3 4 5 6
2 2 2 3 3 4 4 6 7 8 8 7 7 8 8 9 10 10 9 9 10 10 10 10 10 10 10 12 11 9 5 6 5 4 3 1 1 2 4 4 5 6 7
4 3 3 3 3 3 4 6 7 7 6 6 7 8 8 9 9 9 9 9 9 9 9 9 8 7 8 8 8 6 3 3 3 2 1 0 2 4 5 5 5 7 9
6 5 4 4 3 4 5 6 6 5 5 6 7 7 8 7 7 8 8 8 8 8 7 7 7 5 5 5 6 5 4 3 1 1 1 2 4 5 6 5 7 9 9
7 6 6 5 4 4 5 6 4 5 6 7 7 7 8 7 6 7 7 6 5 5 4 4 4 4 3 4 5 4 4 3 2 2 3 4 4 5 5 5 7 7 6
8 7 7 7 6 5 5 5 6 6 7 7 7 6 7 7 6 5 4 4 4 4 3 3 3 2 2 1 1 1 1 2 2 2 2 3 4 5 6 6 5 4 5
9 8 8 8 7 6 6 6 7 7 8 7 6 6 5 6 6 5 5 4 4 3 2 2 1 0 0 1 3 3 3 4 4 3 3 4 4 4 4 4 4 4 5
10 9 9 8 8 8 7 7 7 7 8 7 6 5 4 4 4 5 5 7 6 6 5 3 1 1 2 3 4 4 5 5 5 4 4 4 4 4 5 5 5 5 5
Wind_Direction
285 294 296 290 275 262 253 248 245 239 235 231 226 225 226 227 227 227 229 228 224 218 214 213 210 204 206 204 203 197 193 189 174 171 191 206 215 216 209 207 203 199 197
318 342 336 323 300 282 271 261 252 248 241 234 232 232 232 232 231 227 228 228 226 221 216 215 211 207 208 206 203 195 194 186 185 188 188 207 209 218 215 210 211 207 201
40 31 23 17 2 338 312 290 275 264 254 248 242 239 237 237 233 230 228 226 224 222 218 220 217 210 208 207 204 199 195 192 195 201 196 200 214 191 197 212 211 210 207
40 31 25 21 14 359 340 316 299 281 268 256 244 238 234 233 233 232 232 230 225 223 220 221 221 215 213 211 206 204 205 199 195 204 225 239 227 186 183 198 211 212 213
31 25 17 8 4 357 347 337 326 309 290 266 250 247 245 245 245 242 240 237 230 223 219 219 220 219 217 218 211 206 207 206 202 195 195 209 220 227 205 189 188 202 211
18 14 9 1 358 356 350 341 333 326 317 294 268 251 250 249 248 246 244 241 237 228 221 217 218 219 219 222 218 211 211 210 210 203 196 193 194 205 212 209 179 184 183
1 1 359 355 351 348 344 337 331 324 321 310 291 273 261 256 252 250 247 245 242 234 225 218 220 220 221 223 222 216 215 215 214 209 208 209 209 190 199 198 163 155 150
351 351 350 347 343 340 337 334 329 321 319 313 303 291 278 266 259 255 253 250 247 242 233 223 223 221 220 220 218 217 216 215 216 214 207 201 188 172 171 165 153 149 157
346 348 348 346 341 337 335 331 325 320 318 315 309 299 291 277 270 266 260 256 253 251 239 226 220 219 215 211 207 210 208 204 204 198 182 164 146 134 123 124 143 155 164
347 351 349 348 344 339 335 332 329 324 321 319 314 307 300 292 283 276 266 260 257 250 240 228 219 213 206 199 195 194 190 185 179 164 158 145 135 121 111 106 92 90 122
348 349 349 350 348 348 347 346 343 338 334 330 322 315 310 303 295 285 278 272 262 250 238 226 215 204 195 188 185 181 173 168 159 155 150 141 135 125 114 105 99 94 99
351 352 354 355 358 358 357 356 352 348 344 338 333 329 324 318 313 308 304 295 278 258 237 212 195 188 181 177 176 170 165 161 156 150 142 138 132 122 119 113 111 115 115
352 356 1 4 3 1 0 360 359 354 349 348 346 346 346 343 343 346 349 354 4 35 95 148 161 163 161 160 159 154 149 146 142 140 138 135 130 124 124 123 127 130 136
354 359 2 4 4 4 3 2 1 360 359 2 5 6 4 3 7 20 34 42 53 63 75 90 103 118 126 129 130 131 128 124 120 119 122 124 126 131 134 134 138 143 156
355 1 1 0 1 3 4 5 5 7 8 15 21 20 20 25 31 41 52 60 65 69 76 84 88 94 101 113 118 119 119 116 111 106 104 106 117 131 136 141 153 166 187
354 360 1 1 2 3 4 7 11 13 18 27 31 30 38 45 48 53 61 68 71 74 78 82 87 88 96 111 113 113 109 109 109 107 102 105 111 129 138 153 177 196 215
354 0 2 4 3 5 8 13 16 23 32 37 38 40 46 53 55 60 65 67 72 76 78 82 88 94 103 106 105 102 100 98 100 104 110 115 122 120 131 160 212 232 247
9 11 7 9 11 14 21 28 34 39 43 44 45 47 55 62 63 65 67 68 71 75 77 78 83 88 94 97 98 97 93 95 99 105 116 124 131 142 178 213 234 248 252
80 46 32 25 28 32 35 47 52 51 52 49 49 52 61 68 69 68 67 69 73 72 73 75 81 85 89 93 98 98 99 103 107 114 120 125 137 187 252 253 259 272 273
128 107 86 71 60 53 58 66 63 59 55 54 58 61 68 74 76 75 74 73 75 76 77 78 81 91 97 100 103 106 109 115 120 124 125 116 317 287 285 281 278 284 293
143 132 115 98 80 78 86 80 72 63 61 68 72 71 73 77 81 82 82 85 86 86 87 87 84 88 99 108 107 103 101 110 115 114 92 22 315 307 308 302 291 294 298
160 153 140 125 111 111 110 97 82 80 86 88 85 80 80 83 86 89 89 93 98 98 97 97 92 84 86 91 97 87 77 67 59 12 333 322 313 314 314 304 300 298 295
169 166 160 147 136 134 135 122 117 119 113 102 94 91 89 86 89 93 97 98 100 103 107 108 105 96 81 77 72 62 50 28 342 325 323 320 320 311 299 295 297 295 282
178 173 172 167 157 149 145 138 139 138 128 116 109 105 101 96 91 90 91 95 98 104 108 106 108 109 103 77 41 7 345 319 302 289 281 293 298 286 286 290 282 274 276
181 180 182 177 168 160 154 152 152 149 135 125 119 114 107 106 97 85 74 76 68 56 79 90 94 96 240 341 328 317 314 313 312 295 280 283 287 286 286 283 279 276 270
180 183 184 180 173 169 163 162 163 159 146 138 136 130 125 119 115 113 100 77 79 87 83 80 50 329 308 313 315 316 315 310 309 283 281 287 291 296 300 298 295 290 281
Height
1504 1503 1503 1503 1503 1504 1506 1507 1508 1510 1511 1512 1512 1513 1513 1514 1514 1515 1517 1518 1519 1520 1521 1523 1524 1525 1526 1528 1530 1532 1533 1535 1536 1538 1538 1538 1538 1538 1539 1539 1540 1540 1541
1500 1499 1498 1498 1498 1499 1500 1501 1502 1504 1505 1505 1506 1506 1507 1507 1508 1509 1509 1511 1512 1513 1514 1516 1517 1518 1520 1521 1523 1524 1526 1528 1530 1532 1534 1534 1534 1532 1533 1534 1535 1536 1536
1498 1497 1496 1495 1494 1494 1494 1495 1495 1496 1497 1498 1499 1499 1499 1500 1500 1501 1501 1503 1504 1505 1506 1508 1509 1510 1512 1513 1515 1517 1519 1521 1523 1526 1528 1529 1528 1527 1527 1527 1529 1530 1531
1497 1496 1494 1492 1491 1490 1490 1490 1490 1490 1490 1491 1491 1491 1491 1491 1492 1494 1494 1495 1496 1496 1498 1499 1501 1502 1504 1506 1508 1509 1512 1514 1515 1517 1519 1521 1522 1523 1522 1522 1523 1525 1526
1496 1494 1492 1491 1490 1489 1487 1486 1486 1485 1485 1485 1485 1485 1485 1485 1487 1487 1487 1488 1488 1488 1489 1491 1493 1494 1496 1498 1500 1501 1503 1505 1507 1509 1511 1513 1515 1516 1518 1518 1518 1519 1520
1495 1493 1491 1490 1488 1487 1485 1484 1483 1482 1481 1480 1479 1479 1478 1479 1479 1480 1480 1480 1481 1481 1481 1482 1484 1485 1487 1489 1491 1493 1495 1497 1499 1500 1502 1505 1506 1507 1510 1512 1512 1513 1514
1494 1492 1490 1488 1486 1484 1482 1481 1479 1478 1477 1475 1474 1473 1472 1472 1472 1472 1473 1473 1473 1473 1474 1475 1476 1477 1478 1481 1483 1484 1486 1488 1491 1492 1494 1497 1499 1501 1503 1506 1506 1507 1507
1493 1490 1488 1485 1482 1480 1478 1476 1474 1473 1471 1470 1469 1467 1466 1465 1465 1465 1466 1466 1466 1467 1467 1468 1468 1470 1471 1473 1474 1476 1477 1480 1482 1484 1487 1489 1491 1493 1495 1498 1499 1500 1501
1491 1488 1485 1482 1479 1477 1474 1472 1470 1468 1466 1464 1463 1461 1460 1459 1459 1459 1459 1459 1459 1460 1460 1461 1461 1462 1464 1465 1466 1468 1470 1472 1474 1477 1479 1481 1483 1486 1488 1490 1492 1495 1495
1487 1485 1482 1478 1475 1473 1470 1468 1465 1463 1461 1459 1457 1455 1454 1454 1453 1452 1452 1452 1453 1453 1453 1454 1455 1455 1456 1458 1459 1461 1463 1465 1466 1469 1471 1473 1475 1477 1480 1482 1485 1487 1490
1483 1481 1478 1474 1472 1469 1466 1464 1461 1459 1456 1454 1452 1450 1449 1448 1447 1447 1447 1446 1446 1447 1447 1448 1448 1449 1450 1451 1452 1454 1456 1458 1459 1461 1464 1466 1468 1471 1473 1476 1478 1481 1483
1480 1477 1474 1471 1469 1466 1463 1460 1458 1455 1453 1451 1449 1447 1445 1444 1443 1442 1442 1441 1441 1441 1441 1442 1442 1443 1444 1445 1446 1447 1449 1451 1453 1455 1457 1460 1462 1465 1469 1471 1474 1476 1478
1477 1474 1472 1469 1466 1463 1461 1458 1456 1453 1451 1448 1446 1444 1442 1441 1439 1438 1437 1437 1436 1436 1437 1438 1438 1439 1439 1440 1441 1442 1443 1445 1448 1450 1453 1455 1459 1462 1465 1468 1470 1472 1473
1474 1471 1469 1466 1464 1461 1459 1456 1454 1451 1448 1446 1444 1442 1440 1438 1437 1435 1434 1433 1433 1433 1434 1434 1435 1435 1435 1436 1437 1438 1439 1441 1444 1447 1451 1455 1458 1461 1464 1465 1467 1468 1469
1471 1469 1467 1464 1462 1460 1457 1455 1452 1449 1447 1444 1442 1440 1438 1436 1434 1433 1432 1431 1431 1431 1432 1432 1432 1432 1433 1433 1434 1436 1438 1440 1443 1447 1451 1455 1457 1460 1461 1462 1462 1463 1464
1469 1467 1465 1463 1460 1458 1456 1453 1451 1448 1446 1444 1441 1439 1437 1435 1433 1432 1431 1430 1430 1430 1431 1431 1432 1432 1432 1433 1435 1437 1439 1442 1445 1448 1452 1454 1456 1457 1458 1458 1459 1460 1460
1467 1465 1463 1461 1459 1457 1454 1452 1450 1448 1446 1444 1442 1440 1438 1436 1434 1433 1432 1431 1431 1431 1432 1433 1433 1434 1435 1436 1438 1440 1442 1444 1447 1449 1451 1453 1454 1454 1455 1455 1456 1456 1455
1465 1463 1461 1460 1458 1456 1454 1452 1450 1449 1447 1445 1443 1441 1439 1438 1436 1435 1435 1434 1434 1435 1435 1436 1438 1438 1439 1440 1442 1444 1445 1446 1448 1449 1450 1451 1452 1452 1452 1452 1452 1452 1451
1463 1461 1460 1459 1457 1456 1454 1453 1451 1450 1448 1447 1445 1443 1442 1441 1440 1439 1439 1439 1439 1440 1440 1441 1442 1443 1443 1444 1445 1446 1447 1447 1448 1449 1450 1450 1450 1450 1449 1449 1448 1448 1447
1461 1461 1460 1459 1458 1456 1456 1455 1453 1452 1451 1450 1448 1447 1446 1445 1444 1444 1444 1444 1444 1445 1445 1446 1447 1447 1447 1447 1448 1448 1448 1448 1449 1449 1448 1448 1448 1447 1446 1446 1445 1444 1443
1461 1461 1460 1459 1459 1458 1457 1457 1456 1455 1454 1453 1452 1451 1450 1449 1449 1448 1448 1448 1449 1449 1450 1450 1450 1450 1450 1449 1449 1449 1449 1449 1448 1447 1447 1446 1445 1444 1443 1442 1442 1440 1439
1461 1461 1461 1460 1460 1459 1459 1459 1458 1458 1457 1456 1456 1455 1454 1453 1453 1453 1452 1452 1453 1453 1453 1453 1452 1452 1451 1451 1450 1450 1449 1448 1447 1446 1445 1444 1442 1441 1440 1439 1438 1436 1435
1460 1460 1461 1461 1461 1461 1461 1461 1460 1460 1460 1459 1459 1458 1457 1457 1456 1456 1456 1455 1455 1455 1454 1454 1454 1453 1452 1451 1450 1449 1448 1446 1445 1444 1442 1441 1439 1438 1437 1436 1434 1433 1432
1458 1459 1460 1460 1461 1461 1461 1461 1461 1461 1461 1461 1460 1460 1459 1459 1459 1458 1458 1457 1457 1456 1455 1455 1454 1453 1452 1450 1449 1447 1446 1444 1443 1441 1440 1438 1437 1435 1434 1432 1431 1429 1428
1455 1457 1458 1459 1460 1460 1461 1461 1461 1462 1462 1462 1461 1461 1461 1460 1460 1459 1459 1458 1457 1457 1456 1454 1453 1452 1450 1449 1447 1446 1444 1443 1441 1439 1437 1436 1434 1433 1431 1429 1428 1426 1425
1453 1454 1456 1457 1458 1459 1460 1461 1461 1461 1462 1462 1462 1462 1461 1461 1461 1460 1459 1458 1457 1455 1454 1453 1452 1450 1448 1446 1445 1443 1441 1440 1438 1437 1435 1433 1432 1430 1428 1427 1425 1424 1422